User: anonymous   Login
Location: Santa Maria di Sala
(45.5070°N, 12.0300°E)
Time: 04:53:16
(UTC+01:00)
Language:

CAS-4B - Orbit

View from above orbital plane
View from above orbital plane
View from above satellite
View from above satellite

Ground track
Ground track

The orbit data is extracted from the following two-line orbital elements,

1 42759U 17034B   24062.55821356  .00012537  00000-0  51562-3 0  9991
2 42759  43.0125 107.2438 0011513 355.5247   4.5499 15.24034554371118
Epoch (UTC): 02 March 2024 13:23:49
Eccentricity: 0.0011513
inclination: 43.0125°
perigee height: 486 km
apogee height: 501 km
right ascension of ascending node: 107.2438°
argument of perigee: 355.5247°
revolutions per day: 15.24034554
mean anomaly at epoch: 4.5499°
orbit number at epoch: 37111

The dashed part of the orbit path shows where the satellite is in the earth's shadow,  

DLR